Voltar ao catálogo

INTELSAT 1-F1

AtivoComunicaçõesGEO
NORAD 1317·PAYLOAD· XX

Lançado Apr 6, 1965 de Cape Canaveral Space Force Station

Loading…

TLE

AtualizadoSource: Space-Track

Época: Sep 14, 2026, 13:20 UTC

1  1317U 65028A   26257.55561956  .00000117  00000-0  00000+0 0  9995
2  1317   7.3689  62.7666 0008589 146.4194 197.2708  1.00218013128066

Acompanhe INTELSAT 1-F1 em tempo real com AllMySat

Download on the App Store